WWW216 UAAA-UAAH

Flight info

Callsign WWW216
Flight time 0h 42m
Altitude 28000
Route ETED1B ETEDA W333 TULPI TULP1F
Aircraft B736/M-VGDW/C

Departure

Time 2026-04-27 19:58
Airport Almaty International Airport (UAAA)

Arrival

Time 2026-04-27 20:40
Airport Balkhash Airport (UAAH)
Time Latitude Longitude Altitude Speed Heading
2026-04-27 19:39 43.34679 77.01306 2223 ft 0 kts 246°
2026-04-27 19:49 43.34683 77.01319 2222 ft 2 kts 246°
2026-04-27 19:49 43.34689 77.01337 2225 ft 2 kts 246°
2026-04-27 19:49 43.34694 77.01354 2225 ft 2 kts 246°
2026-04-27 19:50 43.34700 77.01372 2220 ft 2 kts 246°
2026-04-27 19:50 43.34706 77.01389 2220 ft 2 kts 234°
2026-04-27 19:50 43.34715 77.01402 2221 ft 2 kts 205°
2026-04-27 19:50 43.34728 77.01406 2224 ft 2 kts 166°
2026-04-27 19:51 43.34734 77.01404 2222 ft 0 kts 156°
2026-04-27 19:55 43.34711 77.01420 2224 ft 6 kts 153°
2026-04-27 19:55 43.34666 77.01448 2225 ft 8 kts 156°
2026-04-27 19:55 43.34603 77.01468 2223 ft 10 kts 175°
2026-04-27 19:55 43.34531 77.01503 2223 ft 11 kts 155°
2026-04-27 19:56 43.34460 77.01545 2222 ft 11 kts 156°
2026-04-27 19:56 43.34392 77.01587 2223 ft 11 kts 156°
2026-04-27 19:56 43.34324 77.01630 2224 ft 11 kts 155°
2026-04-27 19:56 43.34254 77.01673 2226 ft 11 kts 156°
2026-04-27 19:57 43.34186 77.01729 2231 ft 12 kts 130°
2026-04-27 19:57 43.34179 77.01833 2231 ft 11 kts 66°
2026-04-27 19:57 43.34257 77.01999 2227 ft 52 kts 56°
2026-04-27 19:57 43.34616 77.02729 2233 ft 132 kts 56°
2026-04-27 19:58 43.35258 77.04035 2367 ft 187 kts 55°
2026-04-27 19:58 43.35978 77.05446 3599 ft 170 kts 55°
2026-04-27 19:58 43.36654 77.06772 4602 ft 174 kts 54°
2026-04-27 19:58 43.37423 77.08266 5007 ft 209 kts 54°
2026-04-27 19:59 43.38554 77.09723 5298 ft 240 kts 22°
2026-04-27 19:59 43.40209 77.09894 6004 ft 250 kts 345°
2026-04-27 19:59 43.41871 77.09010 6806 ft 260 kts 336°
2026-04-27 19:59 43.43586 77.07940 7466 ft 277 kts 335°
2026-04-27 20:00 43.45364 77.06815 8421 ft 284 kts 335°
2026-04-27 20:00 43.47152 77.05696 9445 ft 288 kts 335°
2026-04-27 20:00 43.48997 77.04558 10380 ft 295 kts 336°
2026-04-27 20:00 43.50955 77.03363 10762 ft 322 kts 336°
2026-04-27 20:01 43.53104 77.02065 10977 ft 351 kts 336°
2026-04-27 20:01 43.55433 77.00668 11195 ft 377 kts 336°
2026-04-27 20:01 43.57884 76.99205 11760 ft 388 kts 336°
2026-04-27 20:01 43.60378 76.97722 12535 ft 393 kts 336°
2026-04-27 20:02 43.62906 76.96221 13324 ft 397 kts 336°
2026-04-27 20:02 43.65460 76.94704 14036 ft 402 kts 336°
2026-04-27 20:02 43.68048 76.93167 14692 ft 406 kts 335°
2026-04-27 20:02 43.70649 76.91621 15387 ft 409 kts 335°
2026-04-27 20:03 43.73241 76.90079 16072 ft 412 kts 335°
2026-04-27 20:03 43.75894 76.88498 16738 ft 416 kts 334°
2026-04-27 20:03 43.78562 76.86908 17403 ft 419 kts 334°
2026-04-27 20:03 43.81259 76.85298 18060 ft 423 kts 334°
2026-04-27 20:04 43.83984 76.83670 18649 ft 426 kts 334°
2026-04-27 20:04 43.86717 76.82036 19202 ft 429 kts 334°
2026-04-27 20:04 43.89442 76.80404 19743 ft 433 kts 334°
2026-04-27 20:04 43.92226 76.78736 20301 ft 436 kts 333°
2026-04-27 20:05 43.95025 76.77057 20846 ft 439 kts 333°
2026-04-27 20:05 43.97851 76.75361 21377 ft 443 kts 333°
2026-04-27 20:05 44.00695 76.73651 21881 ft 446 kts 333°
2026-04-27 20:05 44.03544 76.71937 22373 ft 449 kts 333°
2026-04-27 20:06 44.06389 76.70223 22853 ft 453 kts 333°
2026-04-27 20:06 44.09296 76.68470 23327 ft 456 kts 333°
2026-04-27 20:06 44.12226 76.66701 23687 ft 462 kts 332°
2026-04-27 20:06 44.15196 76.64906 23927 ft 468 kts 332°
2026-04-27 20:07 44.18217 76.63077 24159 ft 474 kts 333°
2026-04-27 20:07 44.21254 76.61239 24459 ft 477 kts 332°
2026-04-27 20:07 44.24269 76.59413 24767 ft 480 kts 332°
2026-04-27 20:07 44.27331 76.57555 25117 ft 481 kts 332°
2026-04-27 20:08 44.30408 76.55688 25594 ft 480 kts 332°
2026-04-27 20:08 44.33467 76.53828 26032 ft 480 kts 332°
2026-04-27 20:08 44.36541 76.51979 26426 ft 481 kts 333°
2026-04-27 20:08 44.39628 76.50168 26821 ft 482 kts 333°
2026-04-27 20:09 44.42721 76.48373 27287 ft 481 kts 333°
2026-04-27 20:09 44.45813 76.46583 27719 ft 481 kts 333°
2026-04-27 20:09 44.48914 76.44783 27974 ft 484 kts 333°
2026-04-27 20:09 44.52024 76.42970 28057 ft 485 kts 333°
2026-04-27 20:10 44.58283 76.39304 28074 ft 487 kts 333°
2026-04-27 20:10 44.64517 76.35639 28077 ft 488 kts 333°
2026-04-27 20:11 44.70774 76.31951 28073 ft 486 kts 333°
2026-04-27 20:11 44.77017 76.28262 28074 ft 485 kts 333°
2026-04-27 20:12 44.82196 76.25196 28079 ft 485 kts 332°
2026-04-27 20:12 44.89427 76.20903 28078 ft 484 kts 332°
2026-04-27 20:13 44.95649 76.17201 28082 ft 484 kts 332°
2026-04-27 20:13 45.01848 76.13503 28082 ft 484 kts 332°
2026-04-27 20:14 45.08005 76.09822 28090 ft 483 kts 332°
2026-04-27 20:14 45.14208 76.06105 28092 ft 483 kts 332°
2026-04-27 20:15 45.20407 76.02381 28095 ft 483 kts 332°
2026-04-27 20:15 45.26569 75.98671 28099 ft 483 kts 332°
2026-04-27 20:16 45.32768 75.94929 28102 ft 483 kts 332°
2026-04-27 20:16 45.38958 75.91184 28105 ft 484 kts 332°
2026-04-27 20:17 45.45121 75.87450 27632 ft 475 kts 332°
2026-04-27 20:17 45.48151 75.85612 27121 ft 469 kts 332°
2026-04-27 20:17 45.50139 75.84404 26791 ft 466 kts 332°
2026-04-27 20:18 45.54077 75.82006 26140 ft 462 kts 332°
2026-04-27 20:18 45.57036 75.80200 25658 ft 460 kts 332°
2026-04-27 20:18 45.59974 75.78405 25184 ft 457 kts 332°
2026-04-27 20:18 45.62897 75.76618 24715 ft 455 kts 332°
2026-04-27 20:19 45.65767 75.74861 24241 ft 453 kts 332°
2026-04-27 20:19 45.68663 75.73087 23720 ft 452 kts 332°
2026-04-27 20:19 45.71548 75.71319 23040 ft 447 kts 332°
2026-04-27 20:19 45.74387 75.69579 22393 ft 438 kts 333°
2026-04-27 20:20 45.77161 75.67877 21828 ft 430 kts 333°
2026-04-27 20:20 45.79905 75.66188 21324 ft 428 kts 332°
2026-04-27 20:20 45.82644 75.64498 20830 ft 426 kts 333°
2026-04-27 20:20 45.85364 75.62818 20333 ft 424 kts 333°
2026-04-27 20:21 45.88063 75.61149 19850 ft 421 kts 333°
2026-04-27 20:21 45.90710 75.59512 19376 ft 417 kts 333°
2026-04-27 20:21 45.93347 75.57881 18904 ft 408 kts 333°
2026-04-27 20:21 45.95925 75.56286 18426 ft 398 kts 333°
2026-04-27 20:22 45.98443 75.54725 17896 ft 389 kts 333°
2026-04-27 20:22 46.00899 75.53200 17369 ft 381 kts 333°
2026-04-27 20:22 46.03317 75.51696 16856 ft 376 kts 333°
2026-04-27 20:22 46.05710 75.50204 16362 ft 372 kts 333°
2026-04-27 20:23 46.08077 75.48729 15853 ft 368 kts 333°
2026-04-27 20:23 46.10409 75.47274 15367 ft 363 kts 334°
2026-04-27 20:23 46.12711 75.45837 14873 ft 358 kts 334°
2026-04-27 20:23 46.14985 75.44417 14402 ft 354 kts 334°
2026-04-27 20:24 46.17238 75.43009 13932 ft 350 kts 334°
2026-04-27 20:24 46.19427 75.41639 13421 ft 347 kts 334°
2026-04-27 20:24 46.21626 75.40258 12905 ft 343 kts 333°
2026-04-27 20:24 46.23657 75.38494 12389 ft 338 kts 321°
2026-04-27 20:25 46.25498 75.36407 11891 ft 333 kts 320°
2026-04-27 20:25 46.27265 75.34337 11391 ft 323 kts 320°
2026-04-27 20:25 46.28993 75.32315 10907 ft 314 kts 320°
2026-04-27 20:25 46.30647 75.30398 10576 ft 302 kts 320°
2026-04-27 20:26 46.32271 75.28531 10282 ft 295 kts 321°
2026-04-27 20:26 46.33871 75.26700 9999 ft 291 kts 321°
2026-04-27 20:26 46.35449 75.24901 9720 ft 286 kts 321°
2026-04-27 20:26 46.37007 75.23124 9452 ft 283 kts 321°
2026-04-27 20:27 46.38552 75.21362 9202 ft 281 kts 321°
2026-04-27 20:27 46.40091 75.19607 8926 ft 281 kts 322°
2026-04-27 20:27 46.41615 75.17872 8631 ft 281 kts 322°
2026-04-27 20:27 46.43159 75.16112 8323 ft 281 kts 322°
2026-04-27 20:28 46.44699 75.14355 8032 ft 281 kts 322°
2026-04-27 20:28 46.46233 75.12603 7730 ft 280 kts 322°
2026-04-27 20:28 46.47760 75.10865 7442 ft 278 kts 322°
2026-04-27 20:28 46.48766 75.09721 7247 ft 276 kts 322°
2026-04-27 20:29 46.50274 75.08004 6979 ft 273 kts 322°
2026-04-27 20:29 46.52208 75.05801 6664 ft 260 kts 322°
2026-04-27 20:29 46.53614 75.04197 6365 ft 255 kts 322°
2026-04-27 20:29 46.54997 75.02619 6080 ft 251 kts 323°
2026-04-27 20:30 46.55906 75.01580 5871 ft 249 kts 323°
2026-04-27 20:30 46.57259 75.00034 5559 ft 242 kts 323°
2026-04-27 20:30 46.58564 74.98540 5200 ft 235 kts 324°
2026-04-27 20:30 46.59840 74.97079 4799 ft 231 kts 325°
2026-04-27 20:31 46.61091 74.95645 4406 ft 227 kts 326°
2026-04-27 20:31 46.62331 74.94227 4089 ft 226 kts 326°
2026-04-27 20:31 46.63585 74.92794 4066 ft 231 kts 327°
2026-04-27 20:31 46.64838 74.91358 4035 ft 224 kts 327°
2026-04-27 20:32 46.66044 74.89973 4027 ft 218 kts 327°
2026-04-27 20:32 46.67222 74.88620 4027 ft 215 kts 326°
2026-04-27 20:32 46.68404 74.87264 4043 ft 217 kts 326°
2026-04-27 20:32 46.69590 74.85901 4046 ft 218 kts 327°
2026-04-27 20:33 46.70770 74.84547 4024 ft 218 kts 327°
2026-04-27 20:33 46.71948 74.83198 3906 ft 210 kts 327°
2026-04-27 20:33 46.73057 74.81926 3793 ft 196 kts 327°
2026-04-27 20:33 46.74097 74.80733 3693 ft 187 kts 327°
2026-04-27 20:34 46.75112 74.79571 3589 ft 185 kts 328°
2026-04-27 20:34 46.76186 74.78571 3537 ft 179 kts 352°
2026-04-27 20:34 46.77339 74.78685 3581 ft 164 kts 28°
2026-04-27 20:34 46.78182 74.79711 3571 ft 158 kts 55°
2026-04-27 20:35 46.78870 74.80981 3546 ft 158 kts 53°
2026-04-27 20:35 46.79561 74.82229 3557 ft 158 kts 53°
2026-04-27 20:35 46.80255 74.83494 3542 ft 160 kts 53°
2026-04-27 20:35 46.80917 74.84708 3510 ft 141 kts 53°
2026-04-27 20:36 46.81487 74.85758 3564 ft 122 kts 53°
2026-04-27 20:36 46.82007 74.86714 3553 ft 122 kts 53°
2026-04-27 20:36 46.82544 74.87704 3390 ft 123 kts 54°
2026-04-27 20:36 46.83050 74.88640 3242 ft 115 kts 53°
2026-04-27 20:37 46.83538 74.89540 3103 ft 111 kts 54°
2026-04-27 20:37 46.84010 74.90412 2957 ft 109 kts 54°
2026-04-27 20:37 46.84476 74.91271 2817 ft 107 kts 54°
2026-04-27 20:37 46.84945 74.92138 2669 ft 110 kts 55°
2026-04-27 20:38 46.85417 74.93013 2522 ft 109 kts 54°
2026-04-27 20:38 46.85883 74.93877 2370 ft 108 kts 53°
2026-04-27 20:38 46.86361 74.94763 2232 ft 113 kts 53°
2026-04-27 20:38 46.86851 74.95672 2051 ft 117 kts 53°
2026-04-27 20:39 46.87364 74.96625 1900 ft 122 kts 52°
2026-04-27 20:39 46.87895 74.97591 1735 ft 122 kts 52°
2026-04-27 20:39 46.88418 74.98582 1537 ft 123 kts 52°
2026-04-27 20:39 46.88945 74.99557 1409 ft 117 kts 52°
2026-04-27 20:40 46.89375 75.00357 1422 ft 76 kts 51°
2026-04-27 20:40 46.89668 75.00900 1436 ft 60 kts 52°
2026-04-27 20:40 46.89811 75.01166 1442 ft 10 kts 52°
2026-04-27 20:40 46.89805 75.01254 1443 ft 10 kts 138°
2026-04-27 20:41 46.89752 75.01317 1444 ft 10 kts 141°
2026-04-27 20:41 46.89701 75.01379 1444 ft 9 kts 140°
2026-04-27 20:41 46.89689 75.01393 1444 ft 0 kts 140°
2026-04-27 20:41 46.89677 75.01407 1444 ft 5 kts 140°
2026-04-27 20:42 46.89644 75.01392 1443 ft 6 kts 230°